, AK

(GMT )
Golovin

Weather History for PAGL - June, 2013

Change the Weather History Date:

Tuesday, June 25, 2013

  Actual Average (WUND) Record (WUND)
Temperature  
Mean Temperature 68 °F -  
Max Temperature 77 °F - - (-1)
Min Temperature 60 °F - - (-1)
Cooling Degree Days 4    
Growing Degree Days 18 (Base 50)    
Moisture  
Dew Point 48 °F    
Average Humidity 54    
Maximum Humidity 77    
Minimum Humidity 29    
Precipitation  
Precipitation 0.01 in - - ()
Sea Level Pressure  
Sea Level Pressure 29.72 in    
Wind  
Wind Speed 10 mph (NNW)    
Max Wind Speed 17 mph    
Max Gust Speed 23 mph    
Visibility 10 miles    
Events      
Averages and records for this station are not official NWS values.
T = Trace of Precipitation, MM = Missing Value Source: NWS Daily Summary

Daily Weather History Graph

Daily Weather History Graph

Search for Another Location

Airport or City:

Astronomy

Jun. 25, 2013 Rise Set
Actual Time 4:11 AM AKDT 1:37 AM AKDT
Civil Twilight Sun does not set Sun does not set
Nautical Twilight Sun does not set Sun does not set
Astronomical Twilight Sun does not set Sun does not set
Moon 1:06 AM AKDT (6/25) 8:57 AM AKDT (6/25)
Length of Visible Light 24h 00m
Length of Day
21h 26m
Waning Gibbous, 92% of the Moon is Illuminated
Jun 25
Waning Gibbous
Jun 29
Last Quarter
Jul 7
New
Jul 15
First Quarter
Jul 22
Full

Hourly Weather History & Observations

Time (AKDT) Temp. Dew Point Humidity Pressure Visibility Wind Dir Wind Speed Gust Speed Precip Events Conditions
12:16 AM 66.2 °F 44.6 °F 46% 29.73 in 10.0 mi North 13.8 mph - N/A   Scattered Clouds
12:36 AM 64.4 °F 44.6 °F 49% 29.73 in 10.0 mi North 13.8 mph 19.6 mph N/A   Overcast
12:56 AM 64.4 °F 44.6 °F 49% 29.73 in 10.0 mi North 11.5 mph 19.6 mph N/A   Overcast
1:16 AM 64.4 °F 42.8 °F 45% 29.73 in 10.0 mi NNE 15.0 mph - N/A   Scattered Clouds
1:36 AM 64.4 °F 42.8 °F 45% 29.74 in 10.0 mi North 13.8 mph 19.6 mph N/A   Mostly Cloudy
1:56 AM 62.6 °F 42.8 °F 48% 29.74 in 10.0 mi North 12.7 mph - N/A   Mostly Cloudy
2:16 AM 62.6 °F 42.8 °F 48% 29.74 in 10.0 mi North 12.7 mph 18.4 mph N/A   Mostly Cloudy
2:36 AM 62.6 °F 42.8 °F 48% 29.74 in 10.0 mi North 11.5 mph 16.1 mph N/A   Partly Cloudy
2:56 AM 62.6 °F 42.8 °F 48% 29.74 in 10.0 mi North 8.1 mph - N/A   Clear
3:16 AM 60.8 °F 41.0 °F 48% 29.75 in 10.0 mi Calm Calm - N/A   Clear
3:36 AM 60.8 °F 41.0 °F 48% 29.75 in 10.0 mi NW 4.6 mph - N/A   Clear
3:56 AM 60.8 °F 44.6 °F 55% 29.75 in 10.0 mi NNW 9.2 mph - N/A   Clear
4:16 AM 60.8 °F 42.8 °F 52% 29.74 in 10.0 mi NNW 9.2 mph - N/A   Clear
4:36 AM 60.8 °F 42.8 °F 52% 29.74 in 10.0 mi NNW 9.2 mph - N/A   Clear
4:56 AM 62.6 °F 44.6 °F 52% 29.74 in 10.0 mi NNW 6.9 mph - N/A   Clear
5:16 AM 60.8 °F 46.4 °F 59% 29.74 in 10.0 mi WNW 6.9 mph - N/A   Clear
5:36 AM 62.6 °F 46.4 °F 55% 29.74 in 10.0 mi West 8.1 mph - N/A   Clear
5:56 AM 60.8 °F 46.4 °F 59% 29.75 in 10.0 mi NW 8.1 mph - N/A   Clear
6:16 AM 62.6 °F 44.6 °F 52% 29.74 in 10.0 mi NW 9.2 mph - N/A   Clear
6:36 AM 60.8 °F 46.4 °F 59% 29.74 in 10.0 mi NW 9.2 mph - N/A   Clear
6:56 AM 60.8 °F 46.4 °F 59% 29.74 in 10.0 mi NW 10.4 mph - N/A   Partly Cloudy
7:16 AM 60.8 °F 46.4 °F 59% 29.74 in 10.0 mi NW 8.1 mph - N/A   Scattered Clouds
7:36 AM 62.6 °F 46.4 °F 55% 29.75 in 10.0 mi NW 8.1 mph - N/A   Partly Cloudy
7:56 AM 60.8 °F 48.2 °F 63% 29.74 in 10.0 mi NW 8.1 mph - N/A   Mostly Cloudy
8:16 AM 62.6 °F 48.2 °F 59% 29.75 in 10.0 mi WNW 6.9 mph - N/A   Overcast
8:36 AM 62.6 °F 48.2 °F 59% 29.75 in 10.0 mi North 9.2 mph - N/A   Overcast
8:56 AM 62.6 °F 48.2 °F 59% 29.74 in 10.0 mi NW 9.2 mph - N/A   Overcast
9:16 AM 62.6 °F 48.2 °F 59% 29.74 in 10.0 mi NW 8.1 mph - N/A   Overcast
9:36 AM 62.6 °F 48.2 °F 59% 29.74 in 10.0 mi NW 6.9 mph - N/A   Mostly Cloudy
9:56 AM 62.6 °F 48.2 °F 59% 29.73 in 10.0 mi NNW 8.1 mph - N/A   Overcast
10:16 AM 62.6 °F 48.2 °F 59% 29.74 in 10.0 mi NW 8.1 mph - N/A   Overcast
10:36 AM 62.6 °F 51.8 °F 68% 29.74 in 10.0 mi West 6.9 mph - N/A   Overcast
10:56 AM 62.6 °F 50.0 °F 63% 29.73 in 10.0 mi NNW 8.1 mph - N/A   Overcast
11:16 AM 62.6 °F 48.2 °F 59% 29.73 in 10.0 mi NNW 8.1 mph - N/A   Overcast
11:36 AM 62.6 °F 51.8 °F 68% 29.73 in 10.0 mi North 8.1 mph - N/A   Overcast
11:56 AM 64.4 °F 51.8 °F 64% 29.73 in 10.0 mi NW 5.8 mph - N/A   Overcast
12:16 PM 64.4 °F 48.2 °F 56% 29.72 in 10.0 mi NW 9.2 mph - N/A   Overcast
12:36 PM 64.4 °F 51.8 °F 64% 29.72 in 10.0 mi WNW 8.1 mph - N/A   Overcast
12:56 PM 66.2 °F 48.2 °F 52% 29.72 in 10.0 mi North 6.9 mph - N/A   Overcast
1:16 PM 69.8 °F 46.4 °F 43% 29.71 in 10.0 mi North 11.5 mph 17.3 mph 0.01 in   Mostly Cloudy
1:36 PM 69.8 °F 48.2 °F 46% 29.71 in 10.0 mi North 12.7 mph 16.1 mph 0.01 in   Mostly Cloudy
1:56 PM 69.8 °F 48.2 °F 46% 29.71 in 10.0 mi North 10.4 mph - 0.01 in   Overcast
2:16 PM 71.6 °F 46.4 °F 41% 29.71 in 10.0 mi North 8.1 mph - N/A   Overcast
2:36 PM 75.2 °F 46.4 °F 36% 29.71 in 10.0 mi North 10.4 mph 16.1 mph N/A   Scattered Clouds
2:56 PM 75.2 °F 42.8 °F 31% 29.71 in 10.0 mi ENE 17.3 mph 23.0 mph N/A   Clear
3:16 PM 75.2 °F 44.6 °F 34% 29.70 in 10.0 mi ENE 16.1 mph 21.9 mph N/A   Clear
3:36 PM 77.0 °F 42.8 °F 29% 29.71 in 10.0 mi ENE 11.5 mph - N/A   Clear
3:56 PM 75.2 °F 44.6 °F 34% 29.70 in 10.0 mi NE 16.1 mph 19.6 mph N/A   Clear
4:16 PM 75.2 °F 46.4 °F 36% 29.70 in 10.0 mi NE 11.5 mph - N/A   Clear
4:36 PM 75.2 °F 46.4 °F 36% 29.70 in 10.0 mi NNE 13.8 mph - N/A   Clear
4:56 PM 77.0 °F 46.4 °F 34% 29.69 in 10.0 mi ENE 9.2 mph - N/A   Clear
5:16 PM 77.0 °F 46.4 °F 34% 29.70 in 10.0 mi East 10.4 mph - N/A   Clear
5:36 PM 77.0 °F 46.4 °F 34% 29.69 in 10.0 mi ESE 4.6 mph - N/A   Clear
5:56 PM 75.2 °F 48.2 °F 38% 29.70 in 10.0 mi South 4.6 mph - N/A   Partly Cloudy
6:16 PM 75.2 °F 50.0 °F 41% 29.69 in 10.0 mi South 5.8 mph - N/A   Scattered Clouds
6:36 PM 73.4 °F 50.0 °F 44% 29.69 in 10.0 mi South 6.9 mph - N/A   Mostly Cloudy
6:56 PM 73.4 °F 50.0 °F 44% 29.69 in 10.0 mi SSW 5.8 mph - N/A   Mostly Cloudy
7:16 PM 73.4 °F 53.6 °F 50% 29.70 in 10.0 mi WNW 4.6 mph - N/A   Mostly Cloudy
7:36 PM 73.4 °F 51.8 °F 47% 29.70 in 10.0 mi West 4.6 mph - N/A   Mostly Cloudy
7:56 PM 71.6 °F 55.4 °F 57% 29.70 in 10.0 mi West 6.9 mph - N/A   Mostly Cloudy
8:16 PM 69.8 °F 53.6 °F 56% 29.70 in 10.0 mi Calm Calm - N/A   Mostly Cloudy
8:36 PM 64.4 °F 55.4 °F 73% 29.71 in 10.0 mi Calm Calm - N/A   Scattered Clouds
8:56 PM 64.4 °F 55.4 °F 73% 29.71 in 9.0 mi Calm Calm - N/A   Clear
9:16 PM 64.4 °F 55.4 °F 73% 29.71 in 10.0 mi ESE 3.5 mph - N/A   Clear
9:36 PM 62.6 °F 55.4 °F 77% 29.72 in 9.0 mi SE 6.9 mph - N/A   Clear
9:56 PM 62.6 °F 55.4 °F 77% 29.72 in 10.0 mi SE 8.1 mph - N/A   Clear
10:16 PM 62.6 °F 53.6 °F 72% 29.72 in 10.0 mi SE 8.1 mph - N/A   Clear
10:36 PM 62.6 °F 55.4 °F 77% 29.73 in 10.0 mi SSE 6.9 mph - N/A   Clear
10:56 PM 62.6 °F 53.6 °F 72% 29.73 in 10.0 mi SSE 5.8 mph - N/A   Clear
11:16 PM 62.6 °F 53.6 °F 72% 29.73 in 10.0 mi South 4.6 mph - N/A   Clear
11:36 PM 62.6 °F 53.6 °F 72% 29.73 in 10.0 mi South 3.5 mph - N/A   Clear
11:56 PM 62.6 °F 53.6 °F 72% 29.73 in 10.0 mi South 4.6 mph - N/A   Mostly Cloudy